timestamp,wind_dir_avg,wind_spd_avg,wind_spd_max_dir,wind_spd_gust,battery_voltage,lat,long
2023-01-18 00:04:01+00:00,222.0,5.44,225.0,6.43,12.01,47.59359,-54.27349
2023-01-18 00:14:00+00:00,223.0,5.53,227.0,6.83,12.01,47.59359,-54.27349
2023-01-18 00:24:00+00:00,214.0,4.05,227.0,6.15,12.01,47.59359,-54.27349
2023-01-18 00:34:00+00:00,16.0,0.85,19.0,1.39,12.01,47.59359,-54.27349
2023-01-18 00:44:00+00:00,176.0,1.55,166.0,2.59,12.01,47.59359,-54.27349
2023-01-18 00:54:00+00:00,268.0,1.03,269.0,3.33,12.01,47.59359,-54.27349
2023-01-18 01:04:00+00:00,1.0,2.83,2.0,3.26,12.01,47.59359,-54.27349
2023-01-18 01:14:00+00:00,338.0,1.47,340.0,1.8,12.01,47.59359,-54.27349
2023-01-18 01:24:00+00:00,352.0,0.31,341.0,0.64,12.01,47.59359,-54.27349
2023-01-18 01:34:00+00:00,241.0,5.81,240.0,6.69,12.01,47.59359,-54.27349
2023-01-18 01:44:00+00:00,238.0,5.79,241.0,6.68,12.01,47.59359,-54.27349
2023-01-18 01:54:00+00:00,235.0,7.03,234.0,7.92,12.01,47.59359,-54.27349
2023-01-18 02:04:00+00:00,218.0,5.57,227.0,7.39,12.01,47.59359,-54.27349
2023-01-18 02:14:00+00:00,227.0,5.92,235.0,7.23,12.01,47.59359,-54.27349
2023-01-18 02:24:00+00:00,235.0,7.08,239.0,7.47,12.01,47.59359,-54.27349
2023-01-18 02:34:00+00:00,230.0,6.08,238.0,7.43,12.01,47.59359,-54.27349
2023-01-18 02:44:00+00:00,215.0,5.05,214.0,6.57,12.01,47.59359,-54.27349
2023-01-18 02:54:00+00:00,221.0,5.15,227.0,6.2,12.01,47.59359,-54.27349
2023-01-18 03:04:00+00:00,213.0,5.58,213.0,6.23,12.01,47.59359,-54.27349
2023-01-18 03:14:01+00:00,221.0,6.45,216.0,7.24,12.01,47.59359,-54.27349
2023-01-18 03:24:01+00:00,235.0,5.6,234.0,6.64,12.01,47.59359,-54.27349
2023-01-18 03:34:01+00:00,232.0,6.27,235.0,7.41,12.01,47.59359,-54.27349
2023-01-18 03:44:01+00:00,229.0,5.44,222.0,6.35,12.01,47.59359,-54.27349
2023-01-18 03:54:01+00:00,228.0,4.43,233.0,5.11,12.01,47.59359,-54.27349
2023-01-18 04:04:01+00:00,209.0,4.43,212.0,4.89,12.01,47.59359,-54.27349
2023-01-18 04:14:00+00:00,196.0,4.74,197.0,5.16,12.01,47.59359,-54.27349
2023-01-18 04:24:00+00:00,204.0,4.31,202.0,4.92,12.01,47.59359,-54.27349
2023-01-18 04:34:00+00:00,186.0,2.87,189.0,3.06,12.01,47.59359,-54.27349
2023-01-18 04:44:00+00:00,178.0,4.42,179.0,4.67,12.01,47.59359,-54.27349
2023-01-18 04:54:00+00:00,171.0,3.93,172.0,4.26,12.01,47.59359,-54.27349
2023-01-18 05:04:00+00:00,184.0,2.88,185.0,2.92,12.01,47.59359,-54.27349
2023-01-18 05:14:00+00:00,192.0,3.33,193.0,3.53,12.01,47.59359,-54.27349
2023-01-18 05:24:00+00:00,186.0,2.47,187.0,2.48,12.01,47.59359,-54.27349
2023-01-18 05:34:00+00:00,205.0,3.17,212.0,3.73,12.01,47.59359,-54.27349
2023-01-18 05:44:00+00:00,227.0,2.87,227.0,3.21,12.01,47.59359,-54.27349
2023-01-18 05:54:00+00:00,216.0,3.97,217.0,4.2,12.01,47.59359,-54.27349
2023-01-18 06:04:00+00:00,246.0,2.95,247.0,3.24,12.01,47.59359,-54.27349
2023-01-18 06:14:01+00:00,187.0,1.01,179.0,1.35,12.01,47.59359,-54.27349
2023-01-18 06:24:01+00:00,170.0,1.28,171.0,1.51,12.01,47.59359,-54.27349
2023-01-18 06:34:01+00:00,174.0,1.4,174.0,1.54,12.01,47.59359,-54.27349
2023-01-18 06:44:01+00:00,188.0,2.45,188.0,2.55,12.01,47.59359,-54.27349
2023-01-18 06:54:01+00:00,185.0,3.02,185.0,3.24,12.01,47.59359,-54.27349
2023-01-18 07:04:01+00:00,191.0,1.64,192.0,1.79,12.01,47.59359,-54.27349
2023-01-18 07:14:00+00:00,180.0,1.58,180.0,1.69,12.01,47.59359,-54.27349
2023-01-18 07:24:00+00:00,177.0,2.08,177.0,2.19,12.01,47.59359,-54.27349
2023-01-18 07:34:00+00:00,170.0,1.48,171.0,1.64,12.01,47.59359,-54.27349
2023-01-18 07:44:00+00:00,172.0,0.99,173.0,1.16,12.01,47.59359,-54.27349
2023-01-18 07:54:00+00:00,175.0,1.38,176.0,1.44,12.01,47.59359,-54.27349
2023-01-18 08:04:00+00:00,159.0,1.14,163.0,1.19,12.01,47.59359,-54.27349
2023-01-18 08:14:00+00:00,229.0,0.92,233.0,1.11,12.01,47.59359,-54.27349
2023-01-18 08:24:00+00:00,272.0,1.8,274.0,1.9,12.01,47.59359,-54.27349
2023-01-18 08:34:00+00:00,260.0,3.01,260.0,3.4,12.01,47.59359,-54.27349
2023-01-18 08:44:00+00:00,247.0,5.02,251.0,6.4,12.01,47.59359,-54.27349
2023-01-18 08:54:00+00:00,315.0,0.01,253.0,0.0,12.01,47.59359,-54.27349
2023-01-18 09:04:00+00:00,315.0,0.01,253.0,0.0,12.01,47.59359,-54.27349
2023-01-18 09:14:01+00:00,252.0,9.72,255.0,11.07,11.93,47.59359,-54.27349
2023-01-18 09:24:01+00:00,240.0,7.52,245.0,9.87,11.93,47.59359,-54.27349
2023-01-18 09:34:01+00:00,234.0,8.02,241.0,10.19,11.93,47.59359,-54.27349
2023-01-18 09:44:01+00:00,196.0,4.05,220.0,5.25,11.93,47.59359,-54.27349
2023-01-18 09:54:01+00:00,195.0,4.53,217.0,5.7,11.93,47.59359,-54.27349
2023-01-18 10:04:01+00:00,183.0,4.4,216.0,6.24,11.93,47.59359,-54.27349
2023-01-18 10:14:00+00:00,175.0,4.0,216.0,5.15,11.93,47.59359,-54.27349
2023-01-18 10:24:00+00:00,195.0,4.56,218.0,6.7,11.93,47.59359,-54.27349
2023-01-18 10:34:00+00:00,213.0,6.08,209.0,7.44,11.93,47.59359,-54.27349
2023-01-18 10:44:00+00:00,219.0,6.32,239.0,9.87,11.93,47.59359,-54.27349
2023-01-18 10:54:00+00:00,219.0,6.59,229.0,8.74,11.93,47.59359,-54.27349
2023-01-18 11:04:00+00:00,227.0,6.75,240.0,9.99,11.93,47.59359,-54.27349
2023-01-18 11:14:00+00:00,219.0,5.54,236.0,8.55,12.01,47.59359,-54.27349
2023-01-18 11:24:00+00:00,223.0,7.04,238.0,10.32,12.01,47.59359,-54.27349
2023-01-18 11:34:00+00:00,224.0,8.95,231.0,10.41,12.01,47.59359,-54.27349
2023-01-18 11:44:00+00:00,229.0,10.75,231.0,12.13,12.01,47.59359,-54.27349
2023-01-18 11:54:00+00:00,221.0,9.92,228.0,12.31,12.01,47.59359,-54.27349
2023-01-18 12:04:00+00:00,216.0,9.16,228.0,12.06,12.01,47.59359,-54.27349
2023-01-18 12:14:01+00:00,222.0,10.51,230.0,12.82,12.09,47.59359,-54.27349
2023-01-18 12:24:01+00:00,226.0,11.68,224.0,13.23,12.09,47.59359,-54.27349
2023-01-18 12:34:01+00:00,226.0,12.43,224.0,13.27,12.09,47.59359,-54.27349
2023-01-18 12:44:01+00:00,227.0,11.63,225.0,12.98,12.09,47.59359,-54.27349
2023-01-18 12:54:01+00:00,226.0,10.48,225.0,11.82,12.09,47.59359,-54.27349
2023-01-18 13:04:01+00:00,230.0,9.27,229.0,11.68,12.09,47.59359,-54.27349
2023-01-18 13:14:00+00:00,223.0,10.37,220.0,12.38,12.41,47.59359,-54.27349
2023-01-18 13:24:00+00:00,227.0,10.5,236.0,12.71,12.41,47.59359,-54.27349
2023-01-18 13:34:00+00:00,226.0,10.47,220.0,13.03,12.41,47.59359,-54.27349
2023-01-18 13:44:00+00:00,221.0,8.84,223.0,10.06,12.41,47.59359,-54.27349
2023-01-18 13:54:00+00:00,225.0,10.69,229.0,11.72,12.41,47.59359,-54.27349
2023-01-18 14:04:00+00:00,228.0,10.46,233.0,11.48,12.41,47.59359,-54.27349
2023-01-18 14:14:00+00:00,225.0,10.74,220.0,13.55,12.81,47.59359,-54.27349
2023-01-18 14:24:00+00:00,230.0,11.14,236.0,14.06,12.81,47.59359,-54.27349
2023-01-18 14:34:00+00:00,227.0,10.4,226.0,12.46,12.81,47.59359,-54.27349
2023-01-18 14:44:00+00:00,224.0,10.92,224.0,12.69,12.81,47.59359,-54.27349
2023-01-18 14:54:00+00:00,225.0,10.16,223.0,11.47,12.81,47.59359,-54.27349
2023-01-18 15:04:00+00:00,221.0,11.3,217.0,12.54,12.81,47.59359,-54.27349
2023-01-18 15:14:00+00:00,221.0,12.16,219.0,13.61,12.97,47.59359,-54.27349
2023-01-18 15:24:00+00:00,217.0,12.89,212.0,14.42,12.97,47.59359,-54.27349
2023-01-18 15:34:00+00:00,218.0,12.5,213.0,14.92,12.97,47.59359,-54.27349
2023-01-18 15:44:00+00:00,218.0,12.36,212.0,14.14,12.97,47.59359,-54.27349
2023-01-18 15:54:00+00:00,220.0,11.32,218.0,12.65,12.97,47.59359,-54.27349
2023-01-18 16:04:00+00:00,219.0,12.03,217.0,13.78,12.97,47.59359,-54.27349
2023-01-18 16:14:00+00:00,220.0,11.7,219.0,13.68,12.89,47.59359,-54.27349
2023-01-18 16:24:00+00:00,220.0,11.46,219.0,12.9,12.89,47.59359,-54.27349
2023-01-18 16:34:00+00:00,220.0,11.0,224.0,12.35,12.89,47.59359,-54.27349
2023-01-18 16:44:00+00:00,217.0,10.81,216.0,11.89,12.89,47.59359,-54.27349
2023-01-18 16:54:00+00:00,219.0,11.33,217.0,12.35,12.89,47.59359,-54.27349
2023-01-18 17:04:00+00:00,216.0,11.12,212.0,12.6,12.89,47.59359,-54.27349
2023-01-18 17:14:01+00:00,218.0,11.02,218.0,12.95,12.57,47.59359,-54.27349
2023-01-18 17:24:01+00:00,218.0,12.31,221.0,14.02,12.57,47.59359,-54.27349
2023-01-18 17:34:01+00:00,218.0,10.4,224.0,11.86,12.57,47.59359,-54.27349
2023-01-18 17:44:01+00:00,218.0,10.6,216.0,11.97,12.57,47.59359,-54.27349
2023-01-18 17:54:01+00:00,216.0,11.9,218.0,13.09,12.57,47.59359,-54.27349
2023-01-18 18:04:01+00:00,219.0,10.76,217.0,12.69,12.57,47.59359,-54.27349
2023-01-18 18:14:00+00:00,218.0,10.49,218.0,11.53,12.73,47.59359,-54.27349
2023-01-18 18:24:00+00:00,215.0,9.43,220.0,11.01,12.73,47.59359,-54.27349
2023-01-18 18:34:00+00:00,219.0,9.86,220.0,10.94,12.73,47.59359,-54.27349
2023-01-18 18:44:00+00:00,219.0,9.19,221.0,10.45,12.73,47.59359,-54.27349
2023-01-18 18:54:00+00:00,215.0,11.09,215.0,12.28,12.73,47.59359,-54.27349
2023-01-18 19:04:00+00:00,221.0,8.88,220.0,10.24,12.73,47.59359,-54.27349
2023-01-18 19:14:01+00:00,227.0,10.13,224.0,11.86,12.57,47.59359,-54.27349
2023-01-18 19:24:01+00:00,224.0,9.77,221.0,10.75,12.57,47.59359,-54.27349
2023-01-18 19:34:01+00:00,226.0,9.26,224.0,10.69,12.57,47.59359,-54.27349
2023-01-18 19:44:01+00:00,225.0,8.69,226.0,9.89,12.57,47.59359,-54.27349
2023-01-18 19:54:01+00:00,218.0,7.67,216.0,8.69,12.57,47.59359,-54.27349
2023-01-18 20:04:01+00:00,217.0,10.95,219.0,11.93,12.57,47.59359,-54.27349
2023-01-18 20:14:00+00:00,219.0,10.67,216.0,12.19,12.41,47.59359,-54.27349
2023-01-18 20:24:00+00:00,220.0,8.91,220.0,10.85,12.41,47.59359,-54.27349
2023-01-18 20:34:00+00:00,223.0,9.67,229.0,10.91,12.41,47.59359,-54.27349
2023-01-18 20:44:00+00:00,215.0,9.27,222.0,11.23,12.41,47.59359,-54.27349
2023-01-18 20:54:00+00:00,217.0,8.45,224.0,10.87,12.41,47.59359,-54.27349
2023-01-18 21:04:00+00:00,218.0,9.87,218.0,10.9,12.41,47.59359,-54.27349
2023-01-18 21:14:00+00:00,220.0,9.89,224.0,11.83,12.33,47.59359,-54.27349
2023-01-18 21:24:00+00:00,215.0,8.1,216.0,9.34,12.33,47.59359,-54.27349
2023-01-18 21:34:00+00:00,215.0,8.04,217.0,9.06,12.33,47.59359,-54.27349
2023-01-18 21:44:00+00:00,213.0,8.72,220.0,10.7,12.33,47.59359,-54.27349
2023-01-18 21:54:00+00:00,224.0,8.44,224.0,9.97,12.33,47.59359,-54.27349
2023-01-18 22:04:00+00:00,221.0,9.67,218.0,10.95,12.33,47.59359,-54.27349
2023-01-18 22:14:00+00:00,229.0,8.91,225.0,10.11,12.25,47.59359,-54.27349
2023-01-18 22:24:00+00:00,229.0,9.73,234.0,10.76,12.25,47.59359,-54.27349
2023-01-18 22:34:00+00:00,228.0,6.65,233.0,8.24,12.25,47.59359,-54.27349
2023-01-18 22:44:00+00:00,228.0,8.04,222.0,9.63,12.25,47.59359,-54.27349
2023-01-18 22:54:00+00:00,231.0,7.18,240.0,8.82,12.25,47.59359,-54.27349
2023-01-18 23:04:00+00:00,228.0,8.55,222.0,10.2,12.25,47.59359,-54.27349
2023-01-18 23:14:00+00:00,232.0,9.04,230.0,10.53,12.25,47.59359,-54.27349
2023-01-18 23:24:00+00:00,229.0,6.22,239.0,8.15,12.25,47.59359,-54.27349
2023-01-18 23:34:00+00:00,237.0,7.39,235.0,8.59,12.25,47.59359,-54.27349
2023-01-18 23:44:00+00:00,230.0,7.07,234.0,8.69,12.25,47.59359,-54.27349
2023-01-18 23:54:00+00:00,222.0,4.96,224.0,5.82,12.25,47.59359,-54.27349
